Welcome to Northern Hawkes Bay. New Zealand.
PWS Header
      nz Flag



Hit Counter


W3C Valid W3C Valid logo


    Wairoa

Select any of the Stations below to visit their websites.










Historic Data from Weather Underground
Select the location of interest below. Wairoa is the default. Please have patience, this Data is slow to load in.
Northern Hawkes Bay Historical Data
Daily Summary for July 23, 2017 Units:  Metric    English   Both
« Previous Day
Next Day »
Daily Weekly Monthly Yearly Custom
  High: Low: Average:
Temperature: 14.3 °C 5.8 °C 10.1 °C
Dew Point: 8.5 °C 5.4 °C 6.6 °C
Humidity: 99% 61% 80%
Wind Speed: 27.0km/h 0.0km/h 7.9km/h
Wind Gust: 41.7km/h - -
Wind- - WSW
Pressure: 1006.0 hPa 997.2 hPa -
Precipitation: 0.3 mm    
Historical Graphs
 
 
Tabular Data for July 23, 2017
Time Temperature Dew Point Pressure Wind Wind Speed Wind Gust Humidity Rainfall Rate (Hourly) solar
00:04 11.1 °C 8.5 °C 997.2 hPa West 24.5 km/h 41.7 km/h 84% 0.0 mm 0 W/m2
00:09 11.1 °C 8.5 °C 997.2 hPa WSW 27.0 km/h 37.8 km/h 84% 0.0 mm 0 W/m2
00:14 11.1 °C 8.5 °C 997.2 hPa WSW 24.5 km/h 39.3 km/h 84% 0.0 mm 0 W/m2
00:19 11.1 °C 8.5 °C 997.5 hPa WSW 25.6 km/h 39.3 km/h 84% 0.0 mm 0 W/m2
00:24 11.1 °C 8.5 °C 997.5 hPa SW 18.3 km/h 35.6 km/h 84% 0.0 mm 0 W/m2
00:29 11.1 °C 8.5 °C 997.5 hPa SW 20.9 km/h 36.7 km/h 84% 0.0 mm 0 W/m2
00:34 11.1 °C 8.5 °C 997.9 hPa SW 20.9 km/h 37.8 km/h 84% 0.0 mm 0 W/m2
00:39 10.9 °C 8.3 °C 997.9 hPa SW 23.3 km/h 37.8 km/h 84% 0.0 mm 0 W/m2
01:00 10.9 °C 8.3 °C 998.2 hPa WSW 18.3 km/h 36.7 km/h 84% 0.0 mm 0 W/m2
01:05 10.9 °C 8.3 °C 998.2 hPa WSW 14.8 km/h 39.3 km/h 84% 0.0 mm 0 W/m2
01:10 10.9 °C 8.3 °C 998.5 hPa WSW 19.5 km/h 39.3 km/h 84% 0.0 mm 0 W/m2
01:15 10.8 °C 8.2 °C 998.5 hPa WSW 20.9 km/h 29.4 km/h 84% 0.0 mm 0 W/m2
01:20 10.8 °C 8.2 °C 998.5 hPa WSW 13.4 km/h 29.4 km/h 84% 0.0 mm 0 W/m2
01:25 10.8 °C 8.2 °C 998.9 hPa WSW 15.8 km/h 33.1 km/h 84% 0.0 mm 0 W/m2
01:30 10.8 °C 8.2 °C 998.9 hPa WSW 25.6 km/h 35.6 km/h 84% 0.0 mm 0 W/m2
01:35 10.8 °C 8.2 °C 998.9 hPa WSW 18.3 km/h 35.6 km/h 84% 0.0 mm 0 W/m2
01:40 10.7 °C 7.9 °C 998.9 hPa SW 17.2 km/h 35.6 km/h 83% 0.0 mm 0 W/m2
01:46 10.7 °C 8.1 °C 998.9 hPa SW 23.3 km/h 34.3 km/h 84% 0.0 mm 0 W/m2
01:51 10.7 °C 8.1 °C 998.9 hPa SW 21.9 km/h 33.1 km/h 84% 0.0 mm 0 W/m2
01:56 10.8 °C 8.2 °C 998.9 hPa SW 27.0 km/h 36.7 km/h 84% 0.0 mm 0 W/m2
02:01 10.8 °C 8.1 °C 998.9 hPa SW 19.5 km/h 40.4 km/h 83% 0.0 mm 0 W/m2
02:06 10.7 °C 7.9 °C 998.9 hPa SW 12.2 km/h 40.4 km/h 83% 0.0 mm 0 W/m2
02:11 10.7 °C 7.9 °C 999.2 hPa SW 17.2 km/h 35.6 km/h 83% 0.0 mm 0 W/m2
02:16 10.7 °C 7.9 °C 999.2 hPa SW 19.5 km/h 36.7 km/h 83% 0.0 mm 0 W/m2
02:21 10.7 °C 7.9 °C 999.2 hPa WSW 23.3 km/h 36.7 km/h 83% 0.0 mm 0 W/m2
02:26 10.7 °C 7.9 °C 999.5 hPa SW 18.3 km/h 31.7 km/h 83% 0.0 mm 0 W/m2
02:31 10.6 °C 7.8 °C 999.2 hPa SW 19.5 km/h 31.7 km/h 83% 0.0 mm 0 W/m2
02:36 10.6 °C 7.8 °C 999.2 hPa SW 14.8 km/h 25.6 km/h 83% 0.0 mm 0 W/m2
02:41 10.6 °C 7.8 °C 999.2 hPa WSW 11.1 km/h 25.6 km/h 83% 0.0 mm 0 W/m2
02:46 10.6 °C 7.8 °C 999.5 hPa WSW 13.4 km/h 34.3 km/h 83% 0.0 mm 0 W/m2
02:51 10.6 °C 7.8 °C 999.5 hPa WSW 15.8 km/h 34.3 km/h 83% 0.0 mm 0 W/m2
02:56 10.6 °C 7.8 °C 999.5 hPa WSW 17.2 km/h 30.6 km/h 83% 0.0 mm 0 W/m2
03:01 10.6 °C 7.8 °C 999.5 hPa SW 12.2 km/h 31.7 km/h 83% 0.0 mm 0 W/m2
03:06 10.6 °C 7.8 °C 999.5 hPa WSW 21.9 km/h 31.7 km/h 83% 0.0 mm 0 W/m2
03:11 10.6 °C 7.8 °C 999.5 hPa WSW 13.4 km/h 30.6 km/h 83% 0.0 mm 0 W/m2
03:16 10.6 °C 7.8 °C 999.5 hPa WSW 14.8 km/h 30.6 km/h 83% 0.0 mm 0 W/m2
03:21 10.6 °C 7.7 °C 999.5 hPa SW 20.9 km/h 29.4 km/h 82% 0.0 mm 0 W/m2
03:26 10.6 °C 7.7 °C 999.9 hPa SW 15.8 km/h 29.4 km/h 82% 0.0 mm 0 W/m2
03:31 10.6 °C 7.3 °C 999.9 hPa SW 21.9 km/h 34.3 km/h 80% 0.3 mm 0 W/m2
03:36 10.5 °C 7.2 °C 999.9 hPa SW 17.2 km/h 36.7 km/h 80% 0.3 mm 0 W/m2
03:41 10.5 °C 7.2 °C 999.9 hPa SW 11.1 km/h 36.7 km/h 80% 0.3 mm 0 W/m2
03:47 10.4 °C 7.3 °C 999.9 hPa SW 23.3 km/h 34.3 km/h 81% 0.3 mm 0 W/m2
03:52 10.4 °C 7.1 °C 1000.2 hPa SW 20.9 km/h 34.3 km/h 80% 0.3 mm 0 W/m2
03:57 10.4 °C 7.1 °C 1000.2 hPa SW 23.3 km/h 34.3 km/h 80% 0.3 mm 0 W/m2
04:02 10.3 °C 6.8 °C 1000.6 hPa WSW 12.2 km/h 33.1 km/h 79% 0.3 mm 0 W/m2
04:07 10.3 °C 6.8 °C 1000.6 hPa WSW 17.2 km/h 30.6 km/h 79% 0.3 mm 0 W/m2
04:12 10.3 °C 6.8 °C 1000.6 hPa WSW 23.3 km/h 30.6 km/h 79% 0.3 mm 0 W/m2
04:17 10.3 °C 6.8 °C 1000.6 hPa SW 21.9 km/h 31.7 km/h 79% 0.3 mm 0 W/m2
04:22 10.3 °C 6.8 °C 1000.6 hPa SW 17.2 km/h 33.1 km/h 79% 0.3 mm 0 W/m2
04:27 10.2 °C 6.7 °C 1000.6 hPa SW 15.8 km/h 33.1 km/h 79% 0.0 mm 0 W/m2
04:32 10.2 °C 6.6 °C 1000.6 hPa SW 17.2 km/h 34.3 km/h 78% 0.0 mm 0 W/m2
04:37 10.2 °C 6.6 °C 1000.6 hPa SW 18.3 km/h 34.3 km/h 78% 0.0 mm 0 W/m2
04:42 10.2 °C 6.7 °C 1000.9 hPa SW 12.2 km/h 34.3 km/h 79% 0.0 mm 0 W/m2
04:47 10.1 °C 6.6 °C 1000.9 hPa WSW 18.3 km/h 33.1 km/h 79% 0.0 mm 0 W/m2
04:52 10.0 °C 6.3 °C 1000.9 hPa WSW 21.9 km/h 28.0 km/h 78% 0.0 mm 0 W/m2
04:57 10.0 °C 6.6 °C 1001.2 hPa WSW 11.1 km/h 28.0 km/h 79% 0.0 mm 0 W/m2
05:02 10.0 °C 6.7 °C 1001.2 hPa WSW 15.8 km/h 27.0 km/h 80% 0.0 mm 0 W/m2
05:07 10.0 °C 6.7 °C 1001.2 hPa SW 14.8 km/h 24.5 km/h 80% 0.0 mm 0 W/m2
05:12 10.0 °C 6.6 °C 1001.2 hPa SW 19.5 km/h 28.0 km/h 79% 0.0 mm 0 W/m2
05:17 10.0 °C 6.7 °C 1001.6 hPa WSW 11.1 km/h 28.0 km/h 80% 0.0 mm 0 W/m2
05:22 10.0 °C 6.7 °C 1001.6 hPa WSW 11.1 km/h 23.3 km/h 80% 0.0 mm 0 W/m2
05:27 9.9 °C 6.6 °C 1001.6 hPa WSW 15.8 km/h 23.3 km/h 80% 0.0 mm 0 W/m2
05:32 9.9 °C 6.6 °C 1001.6 hPa WSW 9.7 km/h 23.3 km/h 80% 0.0 mm 0 W/m2
05:37 9.8 °C 6.5 °C 1001.6 hPa SW 9.7 km/h 23.3 km/h 80% 0.0 mm 0 W/m2
05:42 9.7 °C 6.6 °C 1001.6 hPa SW 8.7 km/h 21.9 km/h 81% 0.0 mm 0 W/m2
05:47 9.7 °C 6.6 °C 1001.6 hPa WSW 11.1 km/h 19.5 km/h 81% 0.0 mm 0 W/m2
05:52 9.7 °C 6.6 °C 1001.9 hPa WSW 15.8 km/h 21.9 km/h 81% 0.0 mm 0 W/m2
05:57 9.7 °C 6.6 °C 1001.9 hPa West 13.4 km/h 21.9 km/h 81% 0.0 mm 0 W/m2
06:02 9.7 °C 6.4 °C 1001.9 hPa WSW 8.7 km/h 21.9 km/h 80% 0.0 mm 0 W/m2
06:07 9.7 °C 6.4 °C 1001.9 hPa WSW 11.1 km/h 18.3 km/h 80% 0.0 mm 0 W/m2
06:12 9.7 °C 6.4 °C 1001.9 hPa WSW 9.7 km/h 18.3 km/h 80% 0.0 mm 0 W/m2
06:17 9.8 °C 6.5 °C 1002.3 hPa SW 5.0 km/h 17.2 km/h 80% 0.0 mm 0 W/m2
06:22 9.7 °C 6.6 °C 1002.3 hPa WSW 5.0 km/h 17.2 km/h 81% 0.0 mm 0 W/m2
06:27 9.6 °C 6.5 °C 1002.3 hPa West 11.1 km/h 13.4 km/h 81% 0.0 mm 0 W/m2
06:32 9.6 °C 6.5 °C 1002.6 hPa WSW 6.1 km/h 13.4 km/h 81% 0.0 mm 0 W/m2
06:37 9.5 °C 6.4 °C 1002.6 hPa West 2.6 km/h 13.4 km/h 81% 0.0 mm 0 W/m2
06:42 9.5 °C 6.4 °C 1002.9 hPa WNW 5.0 km/h 11.1 km/h 81% 0.0 mm 0 W/m2
06:47 9.4 °C 6.1 °C 1002.9 hPa West 3.5 km/h 9.7 km/h 80% 0.0 mm 0 W/m2
06:52 9.3 °C 6.1 °C 1002.9 hPa West 3.5 km/h 8.7 km/h 80% 0.0 mm 0 W/m2
06:57 9.2 °C 5.9 °C 1002.9 hPa West 3.5 km/h 11.1 km/h 80% 0.0 mm 0 W/m2
07:02 9.1 °C 5.8 °C 1003.3 hPa WNW 6.1 km/h 11.1 km/h 80% 0.0 mm 0 W/m2
07:07 9.1 °C 5.7 °C 1002.9 hPa WNW 3.5 km/h 13.4 km/h 79% 0.0 mm 0 W/m2
07:13 9.0 °C 5.6 °C 1003.3 hPa WNW 2.6 km/h 13.4 km/h 79% 0.0 mm 0 W/m2
07:18 8.7 °C 5.4 °C 1003.3 hPa NW 5.0 km/h 7.2 km/h 80% 0.0 mm 0 W/m2
07:23 8.5 °C 5.4 °C 1003.3 hPa NNW 2.6 km/h 7.2 km/h 81% 0.0 mm 2 W/m2
07:28 8.4 °C 5.5 °C 1003.3 hPa NNW 3.5 km/h 7.2 km/h 82% 0.0 mm 4 W/m2
07:33 8.2 °C 5.5 °C 1003.3 hPa North 2.6 km/h 6.1 km/h 83% 0.0 mm 9 W/m2
07:38 8.1 °C 5.7 °C 1003.6 hPa NNW 1.1 km/h 6.1 km/h 85% 0.0 mm 18 W/m2
07:43 8.1 °C 5.7 °C 1003.6 hPa NNW 1.1 km/h 3.5 km/h 85% 0.0 mm 23 W/m2
07:48 8.1 °C 5.9 °C 1003.6 hPa Calm   3.5 km/h 86% 0.0 mm 26 W/m2
07:53 8.1 °C 5.9 °C 1003.6 hPa NNW 1.1 km/h 3.5 km/h 86% 0.0 mm 28 W/m2
07:58 8.2 °C 6.0 °C 1003.6 hPa NNW 2.6 km/h 12.2 km/h 86% 0.0 mm 30 W/m2
08:03 8.2 °C 6.0 °C 1003.6 hPa NNW 2.6 km/h 12.2 km/h 86% 0.0 mm 35 W/m2
08:08 8.3 °C 6.1 °C 1003.9 hPa NW 5.0 km/h 6.1 km/h 86% 0.0 mm 42 W/m2
08:13 8.4 °C 6.2 °C 1003.9 hPa NW 2.6 km/h 6.1 km/h 86% 0.0 mm 51 W/m2
08:18 8.5 °C 6.1 °C 1003.9 hPa NW 2.6 km/h 6.1 km/h 85% 0.0 mm 79 W/m2
08:23 8.7 °C 6.3 °C 1004.3 hPa NW 3.5 km/h 6.1 km/h 85% 0.0 mm 96 W/m2
08:28 9.2 °C 6.7 °C 1003.9 hPa NW 2.6 km/h 6.1 km/h 84% 0.0 mm 116 W/m2
08:33 9.7 °C 7.1 °C 1004.3 hPa NW 2.6 km/h 6.1 km/h 84% 0.0 mm 150 W/m2
08:38 10.2 °C 7.1 °C 1004.3 hPa NW 3.5 km/h 7.2 km/h 81% 0.0 mm 140 W/m2
08:43 10.4 °C 6.7 °C 1004.3 hPa NW 3.5 km/h 9.7 km/h 78% 0.0 mm 183 W/m2
08:48 10.8 °C 6.7 °C 1004.3 hPa NW 6.1 km/h 9.7 km/h 76% 0.0 mm 189 W/m2
08:53 10.9 °C 6.7 °C 1004.3 hPa WNW 3.5 km/h 9.7 km/h 75% 0.0 mm 194 W/m2
08:58 11.2 °C 6.7 °C 1004.3 hPa WNW 7.2 km/h 9.7 km/h 74% 0.0 mm 207 W/m2
09:03 11.1 °C 6.4 °C 1004.3 hPa NW 6.1 km/h 11.1 km/h 73% 0.0 mm 174 W/m2
09:08 11.1 °C 6.2 °C 1004.3 hPa WNW 7.2 km/h 11.1 km/h 72% 0.0 mm 226 W/m2
09:13 11.1 °C 6.2 °C 1004.3 hPa WNW 9.7 km/h 13.4 km/h 72% 0.0 mm 230 W/m2
09:18 11.3 °C 6.4 °C 1004.6 hPa WNW 5.0 km/h 13.4 km/h 72% 0.0 mm 243 W/m2
09:23 11.7 °C 6.8 °C 1004.3 hPa WNW 2.6 km/h 13.4 km/h 72% 0.0 mm 251 W/m2
09:28 12.0 °C 6.7 °C 1004.6 hPa NW 3.5 km/h 11.1 km/h 70% 0.0 mm 241 W/m2
09:33 11.9 °C 6.4 °C 1004.3 hPa NW 2.6 km/h 11.1 km/h 69% 0.0 mm 240 W/m2
09:38 12.2 °C 6.3 °C 1004.3 hPa WNW 8.7 km/h 12.2 km/h 67% 0.0 mm 153 W/m2
09:43 12.2 °C 6.1 °C 1004.3 hPa West 3.5 km/h 12.2 km/h 66% 0.0 mm 131 W/m2
09:48 12.4 °C 5.8 °C 1004.3 hPa West 7.2 km/h 12.2 km/h 64% 0.0 mm 125 W/m2
09:53 12.6 °C 6.2 °C 1004.3 hPa WNW 3.5 km/h 9.7 km/h 65% 0.0 mm 111 W/m2
09:58 12.9 °C 6.3 °C 1004.3 hPa West 6.1 km/h 9.7 km/h 64% 0.0 mm 98 W/m2
10:03 12.7 °C 5.6 °C 1004.3 hPa WSW 8.7 km/h 15.8 km/h 62% 0.0 mm 92 W/m2
10:08 12.7 °C 5.6 °C 1004.3 hPa WSW 5.0 km/h 15.8 km/h 62% 0.0 mm 87 W/m2
10:13 12.9 °C 5.8 °C 1004.3 hPa WSW 5.0 km/h 11.1 km/h 62% 0.0 mm 83 W/m2
10:18 13.0 °C 5.7 °C 1004.3 hPa West 5.0 km/h 11.1 km/h 61% 0.0 mm 83 W/m2
10:23 13.1 °C 5.8 °C 1004.6 hPa West 7.2 km/h 11.1 km/h 61% 0.0 mm 84 W/m2
10:28 12.5 °C 5.4 °C 1004.6 hPa West 7.2 km/h 13.4 km/h 62% 0.0 mm 86 W/m2
10:33 12.6 °C 5.7 °C 1004.6 hPa West 3.5 km/h 13.4 km/h 63% 0.0 mm 89 W/m2
10:38 13.1 °C 6.2 °C 1004.6 hPa WSW 5.0 km/h 13.4 km/h 63% 0.0 mm 94 W/m2
10:43 12.9 °C 6.1 °C 1004.6 hPa WSW 9.7 km/h 15.8 km/h 63% 0.0 mm 95 W/m2
10:48 13.1 °C 6.7 °C 1004.6 hPa West 9.7 km/h 15.8 km/h 65% 0.0 mm 100 W/m2
10:53 12.5 °C 5.7 °C 1005.0 hPa West 9.7 km/h 14.8 km/h 63% 0.0 mm 95 W/m2
10:58 12.1 °C 5.7 °C 1005.0 hPa WSW 8.7 km/h 20.9 km/h 65% 0.0 mm 96 W/m2
11:03 12.1 °C 5.9 °C 1005.0 hPa WSW 12.2 km/h 20.9 km/h 66% 0.0 mm 113 W/m2
11:08 12.0 °C 5.8 °C 1005.0 hPa SW 12.2 km/h 17.2 km/h 66% 0.0 mm 136 W/m2
11:13 12.0 °C 5.8 °C 1005.0 hPa SW 12.2 km/h 17.2 km/h 66% 0.0 mm 160 W/m2
11:18 11.7 °C 5.8 °C 1005.0 hPa WSW 8.7 km/h 20.9 km/h 67% 0.0 mm 149 W/m2
11:23 11.8 °C 5.9 °C 1005.0 hPa WSW 11.1 km/h 20.9 km/h 67% 0.0 mm 220 W/m2
11:28 12.3 °C 6.1 °C 1005.0 hPa SW 7.2 km/h 19.5 km/h 66% 0.0 mm 229 W/m2
11:33 12.8 °C 6.6 °C 1005.0 hPa SW 3.5 km/h 18.3 km/h 66% 0.0 mm 223 W/m2
11:38 12.9 °C 6.5 °C 1004.6 hPa SW 6.1 km/h 17.2 km/h 65% 0.0 mm 126 W/m2
11:42 12.2 °C 5.8 °C 1005.0 hPa WSW 9.7 km/h 17.2 km/h 65% 0.0 mm 107 W/m2
11:47 11.7 °C 6.0 °C 1004.6 hPa WSW 8.7 km/h 15.8 km/h 68% 0.0 mm 118 W/m2
11:52 11.8 °C 6.1 °C 1004.6 hPa SW 8.7 km/h 14.8 km/h 68% 0.0 mm 124 W/m2
11:57 12.2 °C 6.3 °C 1004.6 hPa SW 8.7 km/h 14.8 km/h 67% 0.0 mm 140 W/m2
12:02 12.8 °C 6.4 °C 1004.6 hPa SW 12.2 km/h 14.8 km/h 65% 0.0 mm 125 W/m2
12:07 12.9 °C 6.5 °C 1004.6 hPa SW 7.2 km/h 18.3 km/h 65% 0.0 mm 118 W/m2
12:12 13.0 °C 6.6 °C 1004.6 hPa SW 8.7 km/h 19.5 km/h 65% 0.0 mm 121 W/m2
12:17 12.8 °C 6.2 °C 1004.6 hPa SW 11.1 km/h 19.5 km/h 64% 0.0 mm 122 W/m2
12:22 12.7 °C 6.1 °C 1004.6 hPa SW 9.7 km/h 18.3 km/h 64% 0.0 mm 119 W/m2
12:27 12.8 °C 5.9 °C 1004.6 hPa SW 5.0 km/h 18.3 km/h 63% 0.0 mm 113 W/m2
12:32 12.4 °C 5.6 °C 1004.6 hPa WSW 8.7 km/h 18.3 km/h 63% 0.0 mm 108 W/m2
12:37 12.4 °C 5.8 °C 1004.3 hPa WSW 7.2 km/h 17.2 km/h 64% 0.0 mm 123 W/m2
12:42 12.3 °C 5.7 °C 1004.3 hPa SW 13.4 km/h 17.2 km/h 64% 0.0 mm 130 W/m2
12:47 12.3 °C 5.7 °C 1004.3 hPa WSW 13.4 km/h 18.3 km/h 64% 0.0 mm 144 W/m2
12:52 12.5 °C 6.1 °C 1004.3 hPa SW 5.0 km/h 18.3 km/h 65% 0.0 mm 160 W/m2
12:57 12.7 °C 6.1 °C 1004.3 hPa SW 7.2 km/h 18.3 km/h 64% 0.0 mm 170 W/m2
13:02 12.6 °C 6.2 °C 1004.3 hPa WSW 8.7 km/h 18.3 km/h 65% 0.0 mm 162 W/m2
13:07 12.4 °C 6.2 °C 1004.3 hPa SW 11.1 km/h 14.8 km/h 66% 0.0 mm 152 W/m2
13:12 12.6 °C 6.6 °C 1004.3 hPa SW 13.4 km/h 15.8 km/h 67% 0.0 mm 149 W/m2
13:17 12.3 °C 6.1 °C 1004.3 hPa SW 14.8 km/h 19.5 km/h 66% 0.0 mm 149 W/m2
13:22 12.3 °C 6.3 °C 1004.3 hPa SW 8.7 km/h 19.5 km/h 67% 0.0 mm 146 W/m2
13:27 12.4 °C 6.4 °C 1004.3 hPa SW 6.1 km/h 18.3 km/h 67% 0.0 mm 133 W/m2
13:32 12.3 °C 6.3 °C 1004.3 hPa SW 11.1 km/h 17.2 km/h 67% 0.0 mm 128 W/m2
13:37 12.3 °C 6.6 °C 1003.9 hPa SW 11.1 km/h 17.2 km/h 68% 0.0 mm 134 W/m2
13:42 12.3 °C 6.8 °C 1003.9 hPa SW 13.4 km/h 17.2 km/h 69% 0.0 mm 132 W/m2
13:47 12.1 °C 6.6 °C 1004.3 hPa SW 12.2 km/h 17.2 km/h 69% 0.0 mm 146 W/m2
13:53 12.3 °C 6.8 °C 1003.9 hPa SSW 11.1 km/h 17.2 km/h 69% 0.0 mm 140 W/m2
13:58 12.3 °C 6.8 °C 1003.9 hPa SSW 8.7 km/h 14.8 km/h 69% 0.0 mm 122 W/m2
14:03 12.1 °C 6.6 °C 1004.3 hPa SW 11.1 km/h 19.5 km/h 69% 0.0 mm 104 W/m2
14:08 12.0 °C 6.7 °C 1003.9 hPa SW 6.1 km/h 19.5 km/h 70% 0.0 mm 109 W/m2
14:13 12.1 °C 6.6 °C 1003.9 hPa SW 6.1 km/h 15.8 km/h 69% 0.0 mm 120 W/m2
14:18 12.1 °C 6.6 °C 1003.9 hPa SW 7.2 km/h 14.8 km/h 69% 0.0 mm 119 W/m2
14:23 12.1 °C 6.4 °C 1004.3 hPa SW 5.0 km/h 14.8 km/h 68% 0.0 mm 108 W/m2
14:28 12.2 °C 6.4 °C 1003.9 hPa SSW 8.7 km/h 14.8 km/h 68% 0.0 mm 111 W/m2
14:33 12.4 °C 6.7 °C 1004.3 hPa SW 2.6 km/h 11.1 km/h 68% 0.0 mm 152 W/m2
14:38 12.9 °C 7.2 °C 1003.9 hPa SW 5.0 km/h 11.1 km/h 68% 0.0 mm 165 W/m2
14:43 13.8 °C 7.6 °C 1004.3 hPa SW 6.1 km/h 9.7 km/h 66% 0.0 mm 212 W/m2
14:48 14.1 °C 6.9 °C 1004.3 hPa SSW 8.7 km/h 12.2 km/h 62% 0.0 mm 204 W/m2
14:53 14.1 °C 7.2 °C 1003.9 hPa SSW 8.7 km/h 14.8 km/h 63% 0.0 mm 206 W/m2
14:58 14.3 °C 7.3 °C 1004.3 hPa SSW 3.5 km/h 14.8 km/h 63% 0.0 mm 202 W/m2
15:03 14.3 °C 6.9 °C 1003.9 hPa SSW 6.1 km/h 13.4 km/h 61% 0.0 mm 185 W/m2
15:08 13.9 °C 6.7 °C 1003.9 hPa SSW 3.5 km/h 13.4 km/h 62% 0.0 mm 110 W/m2
15:13 13.6 °C 6.9 °C 1004.3 hPa South 8.7 km/h 13.4 km/h 64% 0.0 mm 96 W/m2
15:18 12.8 °C 6.2 °C 1003.9 hPa South 5.0 km/h 12.2 km/h 64% 0.0 mm 74 W/m2
15:23 12.5 °C 6.3 °C 1003.9 hPa SSW 7.2 km/h 12.2 km/h 66% 0.0 mm 62 W/m2
15:28 12.3 °C 6.6 °C 1004.3 hPa SSW 2.6 km/h 11.1 km/h 68% 0.0 mm 62 W/m2
15:33 12.2 °C 6.4 °C 1004.3 hPa SW 3.5 km/h 11.1 km/h 68% 0.0 mm 59 W/m2
15:38 12.2 °C 6.4 °C 1004.3 hPa SSW 3.5 km/h 7.2 km/h 68% 0.0 mm 52 W/m2
15:43 12.1 °C 6.4 °C 1004.3 hPa South 2.6 km/h 7.2 km/h 68% 0.0 mm 49 W/m2
15:48 12.1 °C 6.6 °C 1004.3 hPa South 2.6 km/h 7.2 km/h 69% 0.0 mm 44 W/m2
15:53 12.1 °C 7.0 °C 1004.6 hPa SSW 1.1 km/h 7.2 km/h 71% 0.0 mm 42 W/m2
15:58 12.1 °C 6.8 °C 1004.6 hPa South 1.1 km/h 6.1 km/h 70% 0.0 mm 43 W/m2
16:03 12.1 °C 7.0 °C 1004.3 hPa South 2.6 km/h 6.1 km/h 71% 0.0 mm 45 W/m2
16:06 12.0 °C 6.7 °C 1004.6 hPa South 1.1 km/h 6.1 km/h 70% 0.0 mm 47 W/m2
16:11 12.1 °C 6.6 °C 1004.6 hPa South 3.5 km/h 6.1 km/h 69% 0.0 mm 49 W/m2
16:16 12.1 °C 6.6 °C 1004.6 hPa SSW 2.6 km/h 6.1 km/h 69% 0.0 mm 48 W/m2
16:21 12.3 °C 7.0 °C 1004.6 hPa SSW 2.6 km/h 7.2 km/h 70% 0.0 mm 50 W/m2
16:26 12.3 °C 6.8 °C 1004.6 hPa South 1.1 km/h 7.2 km/h 69% 0.0 mm 47 W/m2
16:31 12.3 °C 6.8 °C 1004.6 hPa South 1.1 km/h 7.2 km/h 69% 0.0 mm 40 W/m2
16:36 12.2 °C 6.7 °C 1004.6 hPa South 2.6 km/h 7.2 km/h 69% 0.0 mm 32 W/m2
16:41 12.0 °C 6.7 °C 1004.6 hPa South 1.1 km/h 5.0 km/h 70% 0.0 mm 26 W/m2
16:46 11.9 °C 6.8 °C 1004.6 hPa Calm   6.1 km/h 71% 0.0 mm 21 W/m2
16:51 11.8 °C 6.7 °C 1004.6 hPa South 1.1 km/h 6.1 km/h 71% 0.0 mm 13 W/m2
16:56 11.7 °C 6.8 °C 1004.6 hPa Calm   5.0 km/h 72% 0.0 mm 7 W/m2
17:01 11.6 °C 6.7 °C 1005.0 hPa Calm   3.5 km/h 72% 0.0 mm 4 W/m2
17:06 11.5 °C 6.6 °C 1004.6 hPa Calm   1.1 km/h 72% 0.0 mm 2 W/m2
17:11 11.3 °C 6.4 °C 1004.6 hPa Calm   1.1 km/h 72% 0.0 mm 0 W/m2
17:28 10.9 °C 6.7 °C 1005.0 hPa Calm     75% 0.0 mm 0 W/m2
17:33 10.6 °C 6.3 °C 1005.0 hPa Calm     75% 0.0 mm 0 W/m2
17:38 10.4 °C 6.2 °C 1005.0 hPa Calm     75% 0.0 mm 0 W/m2
17:43 10.3 °C 6.3 °C 1005.0 hPa Calm     76% 0.0 mm 0 W/m2
17:48 10.2 °C 6.2 °C 1005.0 hPa Calm     76% 0.0 mm 0 W/m2
17:53 10.0 °C 6.2 °C 1005.0 hPa Calm     77% 0.0 mm 0 W/m2
17:58 9.9 °C 6.6 °C 1005.0 hPa Calm     80% 0.0 mm 0 W/m2
18:03 9.8 °C 6.7 °C 1005.0 hPa Calm     81% 0.0 mm 0 W/m2
18:08 9.7 °C 6.8 °C 1005.0 hPa Calm     82% 0.0 mm 0 W/m2
18:13 9.6 °C 7.1 °C 1005.0 hPa NE 1.1 km/h 2.6 km/h 84% 0.0 mm 0 W/m2
18:18 9.4 °C 7.0 °C 1005.0 hPa NE 1.1 km/h 2.6 km/h 85% 0.0 mm 0 W/m2
18:23 9.3 °C 6.9 °C 1005.0 hPa NNE 1.1 km/h 2.6 km/h 85% 0.0 mm 0 W/m2
18:28 9.1 °C 6.9 °C 1005.3 hPa North 2.6 km/h 3.5 km/h 86% 0.0 mm 0 W/m2
18:33 8.9 °C 7.0 °C 1005.3 hPa NW 2.6 km/h 5.0 km/h 88% 0.0 mm 0 W/m2
18:38 8.6 °C 6.7 °C 1005.3 hPa NW 2.6 km/h 5.0 km/h 88% 0.0 mm 0 W/m2
18:43 8.5 °C 6.8 °C 1005.3 hPa NW 2.6 km/h 5.0 km/h 89% 0.0 mm 0 W/m2
18:48 8.3 °C 6.6 °C 1005.3 hPa NW 1.1 km/h 5.0 km/h 89% 0.0 mm 0 W/m2
18:53 8.2 °C 6.5 °C 1005.3 hPa NW 1.1 km/h 3.5 km/h 89% 0.0 mm 0 W/m2
18:58 8.2 °C 6.7 °C 1005.3 hPa NW 1.1 km/h 3.5 km/h 90% 0.0 mm 0 W/m2
19:03 8.1 °C 6.6 °C 1005.3 hPa NW 1.1 km/h 3.5 km/h 90% 0.0 mm 0 W/m2
19:08 8.1 °C 6.6 °C 1005.3 hPa Calm   3.5 km/h 90% 0.0 mm 0 W/m2
19:13 7.9 °C 6.5 °C 1005.3 hPa Calm   3.5 km/h 91% 0.0 mm 0 W/m2
19:18 7.9 °C 6.5 °C 1005.3 hPa North 2.6 km/h 3.5 km/h 91% 0.0 mm 0 W/m2
19:23 7.9 °C 6.7 °C 1005.3 hPa North 3.5 km/h 5.0 km/h 92% 0.0 mm 0 W/m2
19:28 7.8 °C 6.6 °C 1005.3 hPa North 1.1 km/h 5.0 km/h 92% 0.0 mm 0 W/m2
19:33 7.7 °C 6.5 °C 1005.3 hPa North 2.6 km/h 5.0 km/h 92% 0.0 mm 0 W/m2
19:38 7.6 °C 6.4 °C 1005.6 hPa North 1.1 km/h 3.5 km/h 92% 0.0 mm 0 W/m2
19:43 7.5 °C 6.3 °C 1005.6 hPa North 2.6 km/h 3.5 km/h 92% 0.0 mm 0 W/m2
19:48 7.5 °C 6.4 °C 1005.3 hPa North 2.6 km/h 3.5 km/h 93% 0.0 mm 0 W/m2
19:53 7.4 °C 6.3 °C 1005.3 hPa North 2.6 km/h 3.5 km/h 93% 0.0 mm 0 W/m2
19:58 7.2 °C 6.2 °C 1005.3 hPa North 3.5 km/h 5.0 km/h 93% 0.0 mm 0 W/m2
20:03 7.1 °C 6.1 °C 1005.3 hPa NNW 2.6 km/h 5.0 km/h 93% 0.0 mm 0 W/m2
20:08 7.1 °C 6.1 °C 1005.6 hPa NNW 2.6 km/h 5.0 km/h 93% 0.0 mm 0 W/m2
20:13 7.0 °C 5.9 °C 1005.6 hPa NNW 2.6 km/h 5.0 km/h 93% 0.0 mm 0 W/m2
20:18 7.0 °C 6.1 °C 1005.6 hPa NNW 3.5 km/h 5.0 km/h 94% 0.0 mm 0 W/m2
20:23 7.0 °C 6.1 °C 1005.6 hPa North 2.6 km/h 5.0 km/h 94% 0.0 mm 0 W/m2
20:28 7.0 °C 6.1 °C 1005.3 hPa North 2.6 km/h 5.0 km/h 94% 0.0 mm 0 W/m2
20:33 6.9 °C 6.2 °C 1005.3 hPa NNW 2.6 km/h 5.0 km/h 95% 0.0 mm 0 W/m2
20:38 6.9 °C 6.2 °C 1005.3 hPa NNW 3.5 km/h 6.1 km/h 95% 0.0 mm 0 W/m2
20:43 6.9 °C 6.3 °C 1005.3 hPa NNW 3.5 km/h 6.1 km/h 96% 0.0 mm 0 W/m2
20:48 6.8 °C 6.2 °C 1005.6 hPa NNW 2.6 km/h 6.1 km/h 96% 0.0 mm 0 W/m2
20:53 6.8 °C 6.2 °C 1005.3 hPa NW 5.0 km/h 6.1 km/h 96% 0.0 mm 0 W/m2
20:58 6.9 °C 6.3 °C 1005.3 hPa NW 5.0 km/h 8.7 km/h 96% 0.0 mm 0 W/m2
21:03 6.8 °C 6.2 °C 1005.3 hPa NNW 5.0 km/h 8.7 km/h 96% 0.0 mm 0 W/m2
21:08 6.8 °C 6.2 °C 1005.3 hPa NNW 3.5 km/h 8.7 km/h 96% 0.0 mm 0 W/m2
21:13 6.7 °C 6.3 °C 1005.3 hPa NNW 3.5 km/h 7.2 km/h 97% 0.0 mm 0 W/m2
21:18 6.6 °C 6.2 °C 1005.6 hPa NNW 2.6 km/h 7.2 km/h 97% 0.0 mm 0 W/m2
21:23 6.5 °C 6.1 °C 1005.6 hPa NNW 3.5 km/h 5.0 km/h 97% 0.0 mm 0 W/m2
21:28 6.5 °C 6.1 °C 1005.6 hPa NW 3.5 km/h 7.2 km/h 97% 0.0 mm 0 W/m2
21:33 6.5 °C 6.1 °C 1005.6 hPa NW 3.5 km/h 7.2 km/h 97% 0.0 mm 0 W/m2
21:38 6.5 °C 6.1 °C 1005.6 hPa NNW 3.5 km/h 6.1 km/h 97% 0.0 mm 0 W/m2
21:43 6.3 °C 5.8 °C 1005.6 hPa NW 3.5 km/h 6.1 km/h 97% 0.0 mm 0 W/m2
21:48 6.3 °C 5.8 °C 1005.6 hPa NW 2.6 km/h 6.1 km/h 97% 0.0 mm 0 W/m2
21:53 6.3 °C 5.8 °C 1005.6 hPa NW 3.5 km/h 5.0 km/h 97% 0.0 mm 0 W/m2
21:58 6.2 °C 5.8 °C 1005.6 hPa NNW 3.5 km/h 6.1 km/h 97% 0.0 mm 0 W/m2
22:03 6.2 °C 5.8 °C 1005.3 hPa NNW 2.6 km/h 6.1 km/h 97% 0.0 mm 0 W/m2
22:08 6.2 °C 5.8 °C 1005.6 hPa NW 5.0 km/h 7.2 km/h 97% 0.0 mm 0 W/m2
22:13 6.2 °C 5.8 °C 1005.6 hPa NW 2.6 km/h 7.2 km/h 97% 0.0 mm 0 W/m2
22:18 6.2 °C 5.8 °C 1005.6 hPa NW 3.5 km/h 7.2 km/h 97% 0.0 mm 0 W/m2
22:23 6.1 °C 5.7 °C 1005.6 hPa NW 3.5 km/h 6.1 km/h 97% 0.0 mm 0 W/m2
22:28 6.1 °C 5.7 °C 1006.0 hPa NW 6.1 km/h 7.2 km/h 97% 0.0 mm 0 W/m2
22:33 6.1 °C 5.8 °C 1006.0 hPa NW 5.0 km/h 7.2 km/h 98% 0.0 mm 0 W/m2
22:38 6.1 °C 5.8 °C 1005.6 hPa NNW 5.0 km/h 7.2 km/h 98% 0.0 mm 0 W/m2
22:43 6.1 °C 5.8 °C 1005.6 hPa NNW 6.1 km/h 8.7 km/h 98% 0.0 mm 0 W/m2
22:48 6.2 °C 5.9 °C 1005.6 hPa NNW 7.2 km/h 11.1 km/h 98% 0.0 mm 0 W/m2
22:53 6.3 °C 6.0 °C 1005.6 hPa NNW 6.1 km/h 11.1 km/h 98% 0.0 mm 0 W/m2
22:58 6.3 °C 6.0 °C 1006.0 hPa North 3.5 km/h 9.7 km/h 98% 0.0 mm 0 W/m2
23:03 6.2 °C 5.9 °C 1005.6 hPa North 3.5 km/h 9.7 km/h 98% 0.0 mm 0 W/m2
23:08 6.1 °C 5.8 °C 1005.6 hPa NNW 2.6 km/h 6.1 km/h 98% 0.0 mm 0 W/m2
23:13 6.1 °C 5.8 °C 1005.6 hPa NNW 5.0 km/h 8.7 km/h 98% 0.0 mm 0 W/m2
23:18 6.1 °C 5.8 °C 1005.6 hPa NNW 7.2 km/h 9.7 km/h 98% 0.0 mm 0 W/m2
23:23 6.2 °C 5.9 °C 1005.6 hPa NNW 5.0 km/h 9.7 km/h 98% 0.0 mm 0 W/m2
23:28 6.2 °C 5.9 °C 1005.6 hPa North 3.5 km/h 9.7 km/h 98% 0.0 mm 0 W/m2
23:33 6.2 °C 5.9 °C 1005.6 hPa North 3.5 km/h 9.7 km/h 98% 0.0 mm 0 W/m2
23:38 6.2 °C 5.9 °C 1005.6 hPa North 3.5 km/h 9.7 km/h 98% 0.0 mm 0 W/m2
23:43 6.1 °C 5.8 °C 1005.6 hPa NNW 2.6 km/h 6.1 km/h 98% 0.0 mm 0 W/m2
23:48 6.0 °C 5.7 °C 1005.6 hPa NW 3.5 km/h 6.1 km/h 98% 0.0 mm 0 W/m2
23:53 5.9 °C 5.8 °C 1005.6 hPa NW 5.0 km/h 7.2 km/h 99% 0.0 mm 0 W/m2
23:58 5.8 °C 5.7 °C 1005.6 hPa NNW 3.5 km/h 7.2 km/h 99% 0.0 mm 0 W/m2
Northern Hawkes Bay. New Zealand Historic Data
Compliments of Weather Underground - 2 mb